DW8427 Weather Reports


time (UTC)temp
F
wind
direction
speed
knots
gust
knots
rain 1hr
in
rain 24hr
in
rain mn
in
humidity
%
barometer
mb
20260831131527 58 134 0.0 0.9 0.00 0.00 0.00 78 1010.9
20260831130025 58 144 0.0 2.6 0.00 0.00 0.00 77 1010.7
20260831124537 59 121 0.9 3.5 0.00 0.00 0.00 75 1010.6
20260831123020 59 119 0.9 5.2 0.00 0.00 0.00 74 1010.6
20260831121519 59 117 0.0 2.6 0.00 0.00 0.00 73 1010.6
20260831120016 60 116 0.0 2.6 0.00 0.00 0.00 71 1010.5
20260831114532 60 103 0.0 0.0 0.00 0.00 0.00 70 1010.3
20260831113012 61 91 0.0 0.0 0.00 0.00 0.00 70 1010.3
20260831111509 61 115 0.0 1.7 0.00 0.00 0.00 69 1010.3
20260831110008 61 127 0.0 2.6 0.00 0.00 0.00 69 1010.4
20260831104507 62 119 0.0 2.6 0.00 0.00 0.00 68 1010.5
20260831103003 62 115 0.9 3.5 0.00 0.00 0.00 68 1010.4
20260831101502 62 110 0.0 0.0 0.00 0.00 0.00 69 1010.3
20260831100059 62 106 0.0 0.0 0.00 0.00 0.00 68 1010.2
20260831094608 63 130 0.0 0.0 0.00 0.00 0.00 67 1010.1
20260831093055 63 113 0.0 0.0 0.00 0.00 0.00 67 1010.1
20260831091555 64 111 0.0 0.0 0.00 0.00 0.00 65 1010.2
20260831090056 64 111 0.0 0.0 0.00 0.00 0.00 64 1010.2
20260831084546 65 122 0.0 0.0 0.00 0.00 0.00 64 1010.2
20260831083047 66 134 0.0 2.6 0.00 0.00 0.00 63 1010.2
20260831081541 66 153 0.0 1.7 0.00 0.00 0.00 62 1010.2
20260831080038 67 92 0.9 4.3 0.00 0.00 0.00 62 1010.2
20260831074539 68 128 0.0 6.1 0.00 0.00 0.00 61 1010.2
20260831073033 68 117 1.7 6.1 0.00 0.00 0.00 61 1010.1
20260831071531 68 75 1.7 5.2 0.00 0.00 0.00 61 1010.1
20260831070031 68 136 0.0 2.6 0.00 0.00 0.00 61 1010.1
20260831064527 68 127 0.9 5.2 0.00 0.00 0.00 61 1010.2
20260831063027 69 84 1.7 5.2 0.00 0.00 0.00 60 1010.2
20260831061526 70 94 0.9 5.2 0.00 0.00 0.00 59 1010.3
20260831060025 70 151 0.0 3.5 0.00 0.00 0.00 59 1010.3
20260831054626 71 108 0.0 5.2 0.00 0.00 0.00 58 1010.3
20260831053027 71 94 0.9 2.6 0.00 0.00 0.00 56 1010.2
20260831051524 72 122 0.0 3.5 0.00 0.00 0.00 55 1010.3
20260831050039 72 136 1.7 6.1 0.00 0.00 0.00 55 1010.2
20260831044521 74 101 0.9 4.3 0.00 0.00 0.00 52 1010.1
20260831043022 75 142 0.0 4.3 0.00 0.00 0.00 48 1010.0
20260831041521 76 139 0.0 3.5 0.00 0.00 0.00 45 1009.8
20260831040025 77 129 0.0 1.7 0.00 0.00 0.00 45 1009.6
20260831034519 78 184 0.0 1.7 0.00 0.00 0.00 44 1009.5
20260831033020 79 92 0.0 0.9 0.00 0.00 0.00 42 1009.3
20260831031525 80 130 0.0 0.0 0.00 0.00 0.00 40 1009.1
20260831030017 82 131 0.0 2.6 0.00 0.00 0.00 40 1009.1
20260831024520 83 166 0.9 4.3 0.00 0.00 0.00 38 1009.0
20260831023015 85 162 0.0 7.0 0.00 0.00 0.00 37 1008.8
20260831021515 89 110 0.0 0.0 0.00 0.00 0.00 32 1008.8
20260831020014 89 168 0.0 0.0 0.00 0.00 0.00 32 1008.8
20260831014514 90 260 0.0 0.9 0.00 0.00 0.00 32 1008.8
20260831013012 90 246 0.0 0.9 0.00 0.00 0.00 31 1008.8
20260831011516 90 227 0.0 1.7 0.00 0.00 0.00 31 1009.0
20260831010026 91 259 0.0 0.9 0.00 0.00 0.00 31 1009.0
20260831004506 90 179 0.0 1.7 0.00 0.00 0.00 30 1009.0
20260831003005 91 93 0.0 1.7 0.00 0.00 0.00 29 1009.1
20260831001503 90 38 0.9 3.5 0.00 0.00 0.00 30 1009.2
20260831000002 90 278 0.0 0.9 0.00 0.00 0.00 30 1009.3
20260830234611 90 247 0.0 4.3 0.00 0.00 0.00 29 1009.4
20260830233059 90 247 0.0 2.6 0.00 0.00 0.00 29 1009.6
20260830231558 90 235 0.0 2.6 0.00 0.00 0.00 30 1009.7
20260830230100 88 280 0.0 3.5 0.00 0.00 0.00 31 1009.9
20260830224551 89 302 0.9 4.3 0.00 0.00 0.00 31 1010.0
20260830223048 89 273 0.9 3.5 0.00 0.00 0.00 31 1010.3
20260830221545 88 296 0.0 3.5 0.00 0.00 0.00 33 1010.4
20260830220042 87 270 0.9 7.8 0.00 0.00 0.00 34 1010.7
20260830214540 87 314 0.9 3.5 0.00 0.00 0.00 34 1010.9
20260830213036 86 296 0.0 4.3 0.00 0.00 0.00 36 1011.1
20260830211534 86 255 0.0 3.5 0.00 0.00 0.00 37 1011.3
20260830210032 86 270 0.0 3.5 0.00 0.00 0.00 36 1011.4
20260830204528 85 70 0.0 4.3 0.00 0.00 0.00 40 1011.5
20260830203029 85 41 0.0 3.5 0.00 0.00 0.00 43 1011.7
20260830201559 84 37 0.0 2.6 0.00 0.00 0.00 43 1011.8
20260830200022 83 245 0.0 1.7 0.00 0.00 0.00 43 1011.9
20260830194522 82 300 1.7 4.3 0.00 0.00 0.00 44 1012.0
20260830193019 82 250 0.9 4.3 0.00 0.00 0.00 45 1012.1
20260830191520 81 124 0.0 5.2 0.00 0.00 0.00 43 1012.3
20260830190020 81 152 1.7 5.2 0.00 0.00 0.00 43 1012.5
20260830184513 79 235 0.0 2.6 0.00 0.00 0.00 46 1012.6
20260830183010 78 148 0.0 1.7 0.00 0.00 0.00 47 1012.7
20260830181511 76 87 0.9 2.6 0.00 0.00 0.00 49 1012.8
20260830180005 75 151 0.0 4.3 0.00 0.00 0.00 50 1012.9
20260830174505 74 108 0.0 4.3 0.00 0.00 0.00 51 1013.0
20260830173001 74 221 0.0 2.6 0.00 0.00 0.00 53 1013.0
20260830171608 72 129 0.9 4.3 0.00 0.00 0.00 55 1013.0
20260830170056 70 222 0.0 3.5 0.00 0.00 0.00 58 1013.0
20260830164554 69 113 0.0 3.5 0.00 0.00 0.00 60 1013.1
20260830163058 68 108 0.0 4.3 0.00 0.00 0.00 62 1013.1
20260830161550 67 110 0.0 1.7 0.00 0.00 0.00 64 1013.1
20260830160048 65 104 0.0 4.3 0.00 0.00 0.00 66 1013.1
20260830154547 63 115 0.9 3.5 0.00 0.00 0.00 68 1013.2
20260830153047 62 129 0.0 6.1 0.00 0.00 0.00 70 1013.2
20260830151544 62 121 1.7 5.2 0.00 0.00 0.00 70 1013.1
20260830150044 61 139 2.6 6.1 0.00 0.00 0.00 69 1013.1
20260830144544 61 168 0.0 3.5 0.00 0.00 0.00 70 1013.1
20260830143042 60 114 0.0 1.7 0.00 0.00 0.00 71 1012.9
20260830141538 59 98 0.0 0.0 0.00 0.00 0.00 72 1012.8
20260830140038 58 126 0.0 0.0 0.00 0.00 0.00 71 1012.7
20260830134536 58 110 0.0 0.0 0.00 0.00 0.00 72 1012.5
20260830133041 58 113 0.0 0.0 0.00 0.00 0.00 71 1012.3